When you browse on this site, cookies collect data to enhance your experience and personalize the content and advertising you see.
Visit our Privacy Policy to learn more. By continuing to use the site, you agree to this use of cookies and data.
  • In Netherlands
  • List of Countries
  • For 7 days
  • Water Temperature
  • Satellite Maps
  • Weather Map
  • Weather Widgets
  • user-avatar
    Login

    Hourly Weather Molepolole

    Today, 21 July, Sunday

    Time Temperature Precipitation Wind Pressure Humidity
    00:00 +8°C° 0 mm 2 mps 667 mmHg 40%
    01:00 +7°C° 0 mm 2 mps 667 mmHg 46%
    02:00 +6°C° 0 mm 2 mps 667 mmHg 53%
    03:00 +5°C° 0 mm 2 mps 667 mmHg 55%
    04:00 +5°C° 0 mm 2 mps 667 mmHg 58%
    05:00 +4°C° 0 mm 2 mps 667 mmHg 61%
    06:00 +5°C° 0 mm 2 mps 668 mmHg 56%
    07:00 +6°C° 0 mm 2 mps 668 mmHg 51%
    08:00 +5°C° 0 mm 3 mps 669 mmHg 46%
    09:00 +9°C° 0 mm 3 mps 669 mmHg 37%
    10:00 +13°C° 0 mm 4 mps 670 mmHg 27%
    11:00 +16°C° 0 mm 5 mps 671 mmHg 18%
    12:00 +17°C° 0 mm 5 mps 670 mmHg 18%
    13:00 +20°C° 0 mm 5 mps 670 mmHg 18%
    14:00 +21°C° 0 mm 4 mps 670 mmHg 17%
    15:00 +21°C° 0 mm 5 mps 669 mmHg 23%
    16:00 +20°C° 0 mm 5 mps 669 mmHg 28%
    17:00 +19°C° 0 mm 5 mps 669 mmHg 33%
    18:00 +16°C° 0 mm 5 mps 669 mmHg 43%
    19:00 +13°C° 0 mm 4 mps 669 mmHg 53%
    20:00 +10°C° 0 mm 3 mps 668 mmHg 63%
    21:00 +10°C° 0 mm 4 mps 669 mmHg 66%
    22:00 +8°C° 0 mm 4 mps 669 mmHg 68%
    23:00 +8°C° 0 mm 4 mps 670 mmHg 71%

    Tomorrow, 22 July, Monday

    Time Temperature Precipitation Wind Pressure Humidity
    00:00 +7°C° 0 mm 4 mps 669 mmHg 76%
    01:00 +6°C° 0 mm 4 mps 669 mmHg 82%
    02:00 +5°C° 0 mm 3 mps 668 mmHg 88%
    03:00 +4°C° 0 mm 3 mps 668 mmHg 89%
    04:00 +3°C° 0 mm 3 mps 668 mmHg 91%
    05:00 +3°C° 0 mm 3 mps 668 mmHg 92%
    06:00 +3°C° 0 mm 3 mps 668 mmHg 89%
    07:00 +3°C° 0 mm 3 mps 668 mmHg 86%
    08:00 +4°C° 0 mm 4 mps 669 mmHg 84%
    09:00 +7°C° 0 mm 4 mps 669 mmHg 69%
    10:00 +11°C° 0 mm 4 mps 670 mmHg 55%
    11:00 +15°C° 0 mm 5 mps 670 mmHg 40%
    12:00 +17°C° 0 mm 4 mps 669 mmHg 34%
    13:00 +19°C° 0 mm 4 mps 669 mmHg 27%
    14:00 +21°C° 0 mm 4 mps 668 mmHg 21%
    15:00 +21°C° 0 mm 3 mps 668 mmHg 20%
    16:00 +21°C° 0 mm 3 mps 668 mmHg 19%
    17:00 +21°C° 0 mm 3 mps 667 mmHg 19%
    18:00 +18°C° 0 mm 2 mps 667 mmHg 26%
    19:00 +15°C° 0 mm 2 mps 666 mmHg 34%
    20:00 +12°C° 0 mm 2 mps 665 mmHg 41%
    21:00 +10°C° 0 mm 2 mps 665 mmHg 44%
    22:00 +9°C° 0 mm 2 mps 665 mmHg 47%
    23:00 +8°C° 0 mm 2 mps 666 mmHg 49%

    Day after tomorrow, 23 July, Tuesday

    Time Temperature Precipitation Wind Pressure Humidity
    00:00 +8°C° 0 mm 1 mps 665 mmHg 53%
    01:00 +7°C° 0 mm 1 mps 664 mmHg 57%
    02:00 +7°C° 0 mm 1 mps 664 mmHg 60%
    03:00 +6°C° 0 mm 1 mps 664 mmHg 60%
    04:00 +6°C° 0 mm 1 mps 663 mmHg 61%
    05:00 +6°C° 0 mm 1 mps 663 mmHg 61%
    06:00 +6°C° 0 mm 2 mps 664 mmHg 56%
    07:00 +7°C° 0 mm 2 mps 664 mmHg 51%
    08:00 +8°C° 0 mm 2 mps 665 mmHg 47%
    09:00 +12°C° 0 mm 3 mps 666 mmHg 38%
    10:00 +17°C° 0 mm 3 mps 667 mmHg 29%
    11:00 +21°C° 0 mm 4 mps 667 mmHg 21%
    12:00 +23°C° 0 mm 4 mps 667 mmHg 18%
    13:00 +25°C° 0 mm 5 mps 666 mmHg 15%
    14:00 +27°C° 0 mm 5 mps 665 mmHg 12%
    15:00 +26°C° 0 mm 5 mps 665 mmHg 12%
    16:00 +26°C° 0 mm 4 mps 664 mmHg 13%
    17:00 +25°C° 0 mm 4 mps 664 mmHg 13%
    18:00 +21°C° 0 mm 4 mps 664 mmHg 16%
    19:00 +19°C° 0 mm 3 mps 663 mmHg 20%
    20:00 +16°C° 0 mm 3 mps 663 mmHg 23%
    21:00 +16°C° 0 mm 3 mps 663 mmHg 23%
    22:00 +14°C° 0 mm 4 mps 663 mmHg 24%
    23:00 +14°C° 0 mm 4 mps 663 mmHg 24%

    24 July, Wednesday

    Time Temperature Precipitation Wind Pressure Humidity
    00:00 +13°C° 0 mm 4 mps 663 mmHg 26%
    01:00 +13°C° 0 mm 5 mps 662 mmHg 27%
    02:00 +12°C° 0 mm 5 mps 662 mmHg 28%
    03:00 +10°C° 0 mm 5 mps 662 mmHg 30%
    04:00 +10°C° 0 mm 4 mps 662 mmHg 31%
    05:00 +8°C° 0 mm 4 mps 662 mmHg 33%
    06:00 +8°C° 0 mm 5 mps 663 mmHg 33%
    07:00 +9°C° 0 mm 5 mps 664 mmHg 32%
    08:00 +9°C° 0 mm 6 mps 665 mmHg 32%
    09:00 +11°C° 0 mm 6 mps 666 mmHg 29%
    10:00 +15°C° 0 mm 6 mps 666 mmHg 26%
    11:00 +17°C° 0 mm 6 mps 667 mmHg 23%
    12:00 +19°C° 0 mm 6 mps 667 mmHg 21%
    13:00 +20°C° 0 mm 6 mps 667 mmHg 19%
    14:00 +21°C° 0 mm 6 mps 666 mmHg 17%
    15:00 +21°C° 0 mm 5 mps 666 mmHg 18%
    16:00 +20°C° 0 mm 5 mps 666 mmHg 18%
    17:00 +20°C° 0 mm 4 mps 666 mmHg 18%
    18:00 +17°C° 0 mm 3 mps 666 mmHg 22%
    19:00 +13°C° 0 mm 3 mps 666 mmHg 26%
    20:00 +10°C° 0 mm 3 mps 666 mmHg 30%
    21:00 +9°C° 0 mm 2 mps 666 mmHg 33%
    22:00 +8°C° 0 mm 2 mps 666 mmHg 35%
    23:00 +7°C° 0 mm 2 mps 666 mmHg 37%

    25 July, Thursday

    Time Temperature Precipitation Wind Pressure Humidity
    00:00 +6°C° 0 mm 2 mps 666 mmHg 39%
    01:00 +5°C° 0 mm 2 mps 666 mmHg 41%
    02:00 +4°C° 0 mm 2 mps 665 mmHg 43%
    03:00 +4°C° 0 mm 2 mps 666 mmHg 45%
    04:00 +3°C° 0 mm 2 mps 666 mmHg 48%
    05:00 +3°C° 0 mm 2 mps 666 mmHg 50%
    06:00 +4°C° 0 mm 2 mps 666 mmHg 46%
    07:00 +5°C° 0 mm 2 mps 667 mmHg 43%
    08:00 +6°C° 0 mm 2 mps 668 mmHg 39%
    09:00 +10°C° 0 mm 2 mps 669 mmHg 32%
    10:00 +15°C° 0 mm 2 mps 669 mmHg 24%
    11:00 +18°C° 0 mm 3 mps 670 mmHg 17%
    12:00 +20°C° 0 mm 2 mps 670 mmHg 15%
    13:00 +23°C° 0 mm 2 mps 669 mmHg 13%
    14:00 +24°C° 0 mm 1 mps 669 mmHg 11%
    15:00 +24°C° 0 mm 1 mps 669 mmHg 11%
    16:00 +24°C° 0 mm 2 mps 668 mmHg 11%
    17:00 +23°C° 0 mm 2 mps 668 mmHg 11%
    18:00 +19°C° 0 mm 2 mps 668 mmHg 15%
    19:00 +16°C° 0 mm 2 mps 667 mmHg 19%
    20:00 +12°C° 0 mm 2 mps 667 mmHg 22%
    21:00 +11°C° 0 mm 1 mps 667 mmHg 28%
    22:00 +10°C° 0 mm 1 mps 667 mmHg 34%
    23:00 +9°C° 0 mm 1 mps 666 mmHg 39%

    26 July, Friday

    Time Temperature Precipitation Wind Pressure Humidity
    00:00 +9°C° 0 mm 1 mps 666 mmHg 40%
    01:00 +8°C° 0 mm 1 mps 666 mmHg 42%
    02:00 +8°C° 0 mm 1 mps 666 mmHg 43%
    03:00 +7°C° 0 mm 1 mps 666 mmHg 44%
    04:00 +7°C° 0 mm 1 mps 666 mmHg 45%
    05:00 +6°C° 0 mm 1 mps 665 mmHg 46%
    06:00 +8°C° 0 mm 1 mps 666 mmHg 42%
    07:00 +9°C° 0 mm 1 mps 667 mmHg 39%
    08:00 +9°C° 0 mm 2 mps 668 mmHg 35%
    09:00 +13°C° 0 mm 2 mps 668 mmHg 31%
    10:00 +17°C° 0 mm 2 mps 669 mmHg 26%
    11:00 +20°C° 0 mm 2 mps 670 mmHg 22%
    12:00 +23°C° 0 mm 2 mps 670 mmHg 18%
    13:00 +25°C° 0 mm 2 mps 669 mmHg 15%
    14:00 +26°C° 0 mm 2 mps 669 mmHg 11%
    15:00 +26°C° 0 mm 2 mps 669 mmHg 11%
    16:00 +26°C° 0 mm 2 mps 668 mmHg 10%
    17:00 +25°C° 0 mm 2 mps 668 mmHg 10%
    18:00 +20°C° 0 mm 2 mps 667 mmHg 18%
    19:00 +18°C° 0 mm 1 mps 666 mmHg 26%
    20:00 +13°C° 0 mm 1 mps 666 mmHg 35%
    21:00 +12°C° 0 mm 1 mps 666 mmHg 38%
    22:00 +11°C° 0 mm 1 mps 665 mmHg 40%
    23:00 +10°C° 0 mm 1 mps 665 mmHg 43%
    Show more